Terminal Aerodrome Forecast
Issued by NWS

Home | Current Version | Previous Version | Text Only | Print | Product List | Glossary On
Versions: 1 2 3 4 5 6 7 8 9 10 11 12 13 14
000
FTUS41 KBTV 171700
TAFRUT
TAF
KRUT 171730Z 1718/1818 26006KT P6SM SCT045
     FM180100 13004KT P6SM SCT060
     FM181200 33004KT P6SM BKN030
     FM181500 32008KT P6SM SCT050
      AMD LTD TO CLD VIS AND WIND=

USA.gov is the U.S. government's official web portal to all federal, state and local government web resources and services.